Вернуться в каталог

THOR ABLESTAR DEB

АктивенLEO
NORAD 145·DEBRIS·🇺🇸 United States

Запущен Jun 29, 1961 с Cape Canaveral Space Force Station

Loading…

Ближайшие Пролёты (ближайшие 24 часа)

TLE

СвежийSource: Space-Track

Эпоха: Sep 9, 2026, 05:28 UTC

1 00145U 61015AF  26252.22780221  .00000100  00000-0  11194-3 0  9994
2 00145  66.9266 174.3721 0068378 237.1110 122.3385 14.03334996328503

Отслеживайте THOR ABLESTAR DEB в реальном времени с AllMySat

Download on the App Store